TimePST,TemperatureF,Dew PointF,Humidity,Sea Level PressureIn,VisibilityMPH,Wind Direction,Wind SpeedMPH,Gust SpeedMPH,PrecipitationIn,Events,Conditions,WindDirDegrees,DateUTC
12:53 AM,36.0,34.0,93,30.33,9.0,Calm,Calm,-,N/A,,Clear,0,2012-11-22 08:53:00
1:53 AM,35.1,33.1,92,30.34,10.0,Calm,Calm,-,N/A,,Partly Cloudy,0,2012-11-22 09:53:00
2:53 AM,35.1,33.1,92,30.34,10.0,Calm,Calm,-,N/A,,Clear,0,2012-11-22 10:53:00
3:53 AM,34.0,32.0,92,30.34,7.0,Calm,Calm,-,N/A,,Mostly Cloudy,0,2012-11-22 11:53:00
4:00 AM,33.8,32.0,93,30.32,8.0,Calm,Calm,-,N/A,,Mostly Cloudy,0,2012-11-22 12:00:00
4:39 AM,35.6,33.8,93,30.33,1.5,Calm,Calm,-,N/A,,Overcast,0,2012-11-22 12:39:00
4:45 AM,35.6,33.8,93,30.33,0.8,Calm,Calm,-,N/A,,Overcast,0,2012-11-22 12:45:00
4:53 AM,35.1,34.0,96,30.35,0.5,ENE,3.5,-,N/A,Fog,Fog,70,2012-11-22 12:53:00
5:13 AM,35.6,35.6,100,30.32,2.0,Calm,Calm,-,N/A,,Overcast,0,2012-11-22 13:13:00
5:21 AM,35.6,35.6,100,30.33,6.0,Calm,Calm,-,N/A,,Overcast,0,2012-11-22 13:21:00
5:53 AM,36.0,35.1,97,30.35,3.0,North,3.5,-,N/A,,Overcast,350,2012-11-22 13:53:00
6:12 AM,35.6,35.6,100,30.33,1.8,Calm,Calm,-,N/A,,Overcast,0,2012-11-22 14:12:00
6:25 AM,35.6,35.6,100,30.33,0.8,Calm,Calm,-,N/A,,Overcast,0,2012-11-22 14:25:00
6:53 AM,36.0,36.0,100,30.36,0.8,Calm,Calm,-,N/A,,Mist,0,2012-11-22 14:53:00
7:25 AM,37.4,35.6,93,30.34,0.2,Calm,Calm,-,N/A,Fog,Fog,0,2012-11-22 15:25:00
7:53 AM,37.0,36.0,96,30.38,0.2,Calm,Calm,-,N/A,Fog,Fog,0,2012-11-22 15:53:00
8:16 AM,37.4,35.6,93,30.36,0.8,Calm,Calm,-,N/A,,Mist,0,2012-11-22 16:16:00
8:23 AM,37.4,35.6,93,30.36,2.0,Calm,Calm,-,N/A,,Overcast,0,2012-11-22 16:23:00
8:32 AM,37.4,35.6,93,30.36,3.0,Calm,Calm,-,N/A,,Overcast,0,2012-11-22 16:32:00
8:53 AM,37.0,36.0,96,30.38,4.0,Calm,Calm,-,N/A,,Overcast,0,2012-11-22 16:53:00
9:10 AM,37.4,35.6,93,30.35,10.0,Calm,Calm,-,N/A,,Overcast,0,2012-11-22 17:10:00
9:53 AM,37.0,35.1,93,30.37,10.0,NNW,3.5,-,N/A,,Overcast,330,2012-11-22 17:53:00
10:53 AM,39.0,35.1,86,30.38,8.0,West,3.5,-,N/A,,Overcast,280,2012-11-22 18:53:00
11:53 AM,41.0,36.0,82,30.36,9.0,Calm,Calm,-,N/A,,Mostly Cloudy,0,2012-11-22 19:53:00
12:53 PM,43.0,37.0,80,30.35,10.0,Calm,Calm,-,N/A,,Scattered Clouds,0,2012-11-22 20:53:00
1:53 PM,45.0,37.0,74,30.33,10.0,Calm,Calm,-,N/A,,Clear,0,2012-11-22 21:53:00
2:53 PM,46.9,37.0,68,30.31,10.0,North,3.5,-,N/A,,Clear,360,2012-11-22 22:53:00
3:53 PM,46.0,37.0,71,30.32,10.0,NNW,3.5,-,N/A,,Clear,340,2012-11-22 23:53:00
4:53 PM,44.1,37.0,76,30.31,10.0,Calm,Calm,-,N/A,,Clear,0,2012-11-23 00:53:00
5:53 PM,41.0,36.0,82,30.32,10.0,Calm,Calm,-,N/A,,Clear,0,2012-11-23 01:53:00
6:53 PM,39.9,37.0,89,30.32,10.0,Calm,Calm,-,N/A,,Clear,0,2012-11-23 02:53:00
7:53 PM,37.9,34.0,86,30.32,10.0,Calm,Calm,-,N/A,,Clear,0,2012-11-23 03:53:00
8:53 PM,37.9,35.1,89,30.32,6.0,Calm,Calm,-,N/A,,Clear,0,2012-11-23 04:53:00
9:53 PM,36.0,34.0,93,30.34,7.0,Calm,Calm,-,N/A,,Clear,0,2012-11-23 05:53:00
10:53 PM,36.0,33.1,89,30.34,6.0,Calm,Calm,-,N/A,,Clear,0,2012-11-23 06:53:00
11:53 PM,34.0,32.0,92,30.35,6.0,Calm,Calm,-,N/A,,Clear,0,2012-11-23 07:53:00